{"data":{"norad_id":55141,"epoch":"2026-09-20T03:27:19.159200Z","epoch_age_seconds":52728,"freshness":"FRESH","line1":"1 55141U 23004B   26263.14397175 -.00000313  00000+0 -90681-3 0  9996","line2":"2 55141  87.8982 331.8183 0002021 101.3265 258.8091 13.12441736180510","mean_motion":13.12441736,"eccentricity":0.0002021,"inclination_deg":87.8982,"raan_deg":331.8183,"arg_perigee_deg":101.3265,"mean_anomaly_deg":258.8091,"bstar":-0.00090681,"rev_number":18051,"period_min":109.71915632528,"perigee_km":1212.1938495287,"apogee_km":1215.2624814286,"semimajor_km":7591.8651654787,"source":"CELESTRAK","updated_at":"2026-09-20T09:00:44.750037Z"}}